Back to catalog

OPS 4682 DEB

AlivePO
NORAD 38379·DEBRIS·🇺🇸 United States

Launched Apr 3, 1965 from Vandenberg Space Force Base

Loading…

Next Passes (next 24 hours)

TLE

FreshSource: Space-Track

Epoch: Sep 12, 2026, 01:40 UTC

1 38379U 65027CG  26255.06967319  .00000970  00000-0  31692-2 0  9990
2 38379  90.2448   5.9600 0025881  11.2734 348.8963 13.00556147643759

Track OPS 4682 DEB in real time with AllMySat

Download on the App Store